Simultaneous Nadir Overpasses (SNOs) Predictions

Prediction of SNOs between GOES-16 and METOP-B Satellite Orbit:

Table of predicted SNOs for the next 14.0 days since TLE Epoch: 9/14/2024
Index Date Time (GOES-16) GOES-16 Lat,Lon METOP-B Lat,Lon Distance(km) Time Diff (sec)
1 09/14/2024 14:26:54 -0.05, -75.20 0.44, -77.27 236.44 80
2 09/15/2024 14:08:54 -0.04, -75.21 -0.67, -72.28 332.76 80
3 09/17/2024 02:25:13 0.05, -75.21 -0.33, -76.89 191.59 80
4 09/18/2024 02:07:12 0.05, -75.22 0.79, -71.90 378.11 80
5 09/19/2024 14:23:22 -0.05, -75.23 0.25, -76.46 140.42 80
6 09/20/2024 14:05:21 -0.05, -75.24 -0.89, -71.47 429.70 80
7 09/22/2024 02:21:40 0.05, -75.26 -0.12, -76.08 93.41 80
8 09/23/2024 02:03:38 0.04, -75.27 0.96, -71.08 476.94 80
9 09/24/2024 14:19:47 -0.04, -75.29 0.03, -75.65 40.66 80
10 09/27/2024 02:18:03 0.03, -75.32 0.04, -75.25 8.45 80
